HB9KNR Weather Reports


Display with metric or nautical units.
time (UTC)temp
F
wind
direction
speed
MPH
gust
MPH
rain 1hr
in
rain 24hr
in
rain mn
in
humidity
%
barometer
mb
20260505214516 52 0.0 0.0 0.00 0.01 0.01 86 1009.1
20260505213556 52 0.0 0.0 0.00 0.01 0.01 86 1009.1
20260505212516 52 0.0 0.0 0.00 0.01 0.01 86 1009.1
20260505211516 52 0.0 0.0 0.00 0.01 0.01 86 1009.1
20260505210516 52 0.0 0.0 0.00 0.01 0.01 85 1009.1
20260505205516 53 0.0 0.0 0.00 0.01 0.01 84 1009.2
20260505204516 53 0.0 0.0 0.00 0.01 0.01 84 1009.1
20260505203516 53 0.0 0.0 0.00 0.01 0.01 84 1009.0
20260505202516 54 0.0 0.0 0.00 0.01 0.01 84 1009.0
20260505201516 54 0.0 0.0 0.00 0.01 0.01 84 1009.0
20260505200516 54 0.0 0.0 0.00 0.01 0.01 83 1009.0
20260505195516 54 0.0 0.0 0.00 0.01 0.01 83 1009.0
20260505194516 54 0.0 0.0 0.01 0.01 0.01 82 1008.9
20260505193516 55 0.0 0.0 0.01 0.01 0.01 82 1008.8
20260505192516 55 0.0 0.0 0.01 0.01 0.01 81 1008.8
20260505191516 55 0.0 0.0 0.01 0.01 0.01 80 1008.7
20260505190516 55 0.0 0.0 0.01 0.01 0.01 80 1008.7
20260505185516 56 0.0 0.0 0.01 0.01 0.01 80 1008.8
20260505184516 56 0.0 0.0 0.00 0.00 0.00 79 1008.6
20260505183536 56 0.0 0.0 0.00 0.00 0.00 78 1008.7
20260505182556 57 0.0 0.0 0.00 0.00 0.00 77 1008.4
20260505181516 58 0.0 0.0 0.00 0.00 0.00 76 1008.1
20260505180516 58 0.0 0.0 0.00 0.00 0.00 75 1007.8
20260505175516 59 0.0 0.0 0.00 0.00 0.00 73 1007.9
20260505174516 59 0.0 0.0 0.00 0.00 0.00 70 1007.8
20260505173517 60 0.0 0.0 0.00 0.00 0.00 69 1007.9
20260505172516 61 0.0 0.0 0.00 0.00 0.00 67 1008.0
20260505171516 62 0.0 0.0 0.00 0.00 0.00 65 1007.6
20260505170536 62 0.0 0.0 0.00 0.00 0.00 65 1007.4
20260505165536 63 0.0 0.0 0.00 0.00 0.00 68 1007.3
20260505164516 63 0.0 0.0 0.00 0.00 0.00 69 1007.3
20260505163516 63 0.0 0.0 0.00 0.00 0.00 70 1007.3
20260505162516 63 0.0 0.0 0.00 0.00 0.00 70 1007.1
20260505161516 63 0.0 0.0 0.00 0.00 0.00 72 1007.2
20260505160516 63 0.0 0.0 0.00 0.00 0.00 75 1007.2
20260505152536 64 0.0 0.0 0.00 0.00 0.00 67 1007.0
20260505151516 64 0.0 0.0 0.00 0.00 0.00 68 1007.2
20260505150516 62 0.0 0.0 0.00 0.00 0.00 72 1007.1
20260505140516 61 0.0 0.0 0.00 0.00 0.00 74 1007.2
20260505124516 61 0.0 0.0 0.00 0.00 0.00 78 1007.6
20260505123516 61 0.0 0.0 0.00 0.00 0.00 83 1007.6
20260505122516 59 0.0 0.0 0.00 0.00 0.00 86 1007.4
20260505121556 58 0.0 0.0 0.00 0.00 0.00 86 1007.5
20260505120516 58 0.0 0.0 0.00 0.00 0.00 86 1007.6
20260505115516 58 0.0 0.0 0.00 0.00 0.00 86 1007.7
20260505114516 57 0.0 0.0 0.00 0.00 0.00 87 1007.7
20260505113516 57 0.0 0.0 0.00 0.00 0.00 87 1007.6
20260505112516 57 0.0 0.0 0.00 0.00 0.00 88 1007.7
20260505111516 57 0.0 0.0 0.00 0.00 0.00 88 1007.9
20260505110516 57 0.0 0.0 0.00 0.00 0.00 86 1007.9
20260505101516 58 0.0 0.0 0.00 0.00 0.00 82 1008.3
20260505100516 57 0.0 0.0 0.00 0.00 0.00 82 1008.0
20260505095517 57 0.0 0.0 0.00 0.00 0.00 83 1007.8
20260505094516 57 0.0 0.0 0.00 0.00 0.00 83 1008.0
20260505093515 57 0.0 0.0 0.00 0.00 0.00 85 1008.1
20260505092536 57 0.0 0.0 0.00 0.00 0.00 85 1008.2
20260505091516 57 0.0 0.0 0.00 0.00 0.00 85 1008.4
20260505090515 57 0.0 0.0 0.00 0.00 0.00 85 1008.4
20260505085516 57 0.0 0.0 0.00 0.00 0.00 84 1008.4
20260505084516 57 0.0 0.0 0.00 0.00 0.00 84 1008.5
20260505083515 57 0.0 0.0 0.00 0.00 0.00 85 1008.5
20260505082535 56 0.0 0.0 0.00 0.00 0.00 86 1008.6
20260505081517 56 0.0 0.0 0.00 0.00 0.00 85 1008.7
20260505080515 56 0.0 0.0 0.00 0.00 0.00 86 1008.7
20260505075535 56 0.0 0.0 0.00 0.00 0.00 86 1008.7
20260505074516 55 0.0 0.0 0.00 0.00 0.00 86 1008.8
20260505073515 55 0.0 0.0 0.00 0.00 0.00 86 1008.8
20260505072536 55 0.0 0.0 0.00 0.00 0.00 86 1008.9
20260505071516 55 0.0 0.0 0.00 0.00 0.00 84 1009.0
20260505070536 56 0.0 0.0 0.00 0.00 0.00 85 1009.0
20260505065515 56 0.0 0.0 0.00 0.00 0.00 86 1009.1
20260505064515 56 0.0 0.0 0.00 0.00 0.00 86 1009.2
20260505063516 56 0.0 0.0 0.00 0.00 0.00 89 1009.4
20260505062518 54 0.0 0.0 0.00 0.00 0.00 92 1009.3
20260505061518 53 0.0 0.0 0.00 0.00 0.00 93 1009.4
20260505060517 52 0.0 0.0 0.00 0.00 0.00 93 1009.3
20260505055517 51 0.0 0.0 0.00 0.00 0.00 93 1009.2
20260505054537 51 0.0 0.0 0.00 0.00 0.00 93 1009.2
20260505053538 50 0.0 0.0 0.00 0.00 0.00 93 1009.2
20260505052537 49 0.0 0.0 0.00 0.00 0.00 92 1009.1
20260505051517 49 0.0 0.0 0.00 0.00 0.00 91 1009.2
20260505050517 48 0.0 0.0 0.00 0.00 0.00 91 1009.2
20260505041517 48 0.0 0.0 0.00 0.00 0.00 89 1009.2
20260505040515 49 0.0 0.0 0.00 0.00 0.00 89 1009.3
20260505035517 49 0.0 0.0 0.00 0.00 0.00 89 1009.3
20260505034517 49 0.0 0.0 0.00 0.00 0.00 89 1009.5
20260505033517 49 0.0 0.0 0.00 0.00 0.00 89 1009.6
20260505032517 49 0.0 0.0 0.00 0.00 0.00 89 1009.6
20260505031537 49 0.0 0.0 0.00 0.00 0.00 89 1009.7
20260505030517 50 0.0 0.0 0.00 0.00 0.00 88 1009.9
20260505025537 50 0.0 0.0 0.00 0.00 0.00 88 1009.9
20260505024517 50 0.0 0.0 0.00 0.00 0.00 88 1009.9
20260505023537 50 0.0 0.0 0.00 0.00 0.00 88 1009.8
20260505022517 50 0.0 0.0 0.00 0.00 0.00 88 1010.0
20260505021517 50 0.0 0.0 0.00 0.00 0.00 88 1010.2
20260505020517 51 0.0 0.0 0.00 0.00 0.00 87 1010.4
20260505015517 51 0.0 0.0 0.00 0.00 0.00 87 1010.3
20260505014517 51 0.0 0.0 0.00 0.00 0.00 87 1010.4
20260505013517 51 0.0 0.0 0.00 0.00 0.00 87 1010.4
20260505012517 51 0.0 0.0 0.00 0.00 0.00 87 1010.5
20260505011537 52 0.0 0.0 0.00 0.00 0.00 87 1010.4
20260505010517 52 0.0 0.0 0.00 0.00 0.00 86 1010.6
20260505005517 52 0.0 0.0 0.00 0.00 0.00 86 1010.8
20260505004517 52 0.0 0.0 0.00 0.00 0.00 86 1011.0
20260505003517 52 0.0 0.0 0.00 0.00 0.00 85 1011.1
20260505002517 53 0.0 0.0 0.00 0.00 0.00 85 1011.2
20260505001517 53 0.0 0.0 0.00 0.00 0.00 85 1011.4
20260505000519 53 0.0 0.0 0.00 0.00 0.00 85 1011.3
20260504235517 53 0.0 0.0 0.00 0.00 0.00 85 1011.5
20260504234517 54 0.0 0.0 0.00 0.00 0.00 84 1011.6
20260504233517 54 0.0 0.0 0.00 0.00 0.00 84 1011.6
20260504232517 54 0.0 0.0 0.00 0.00 0.00 84 1011.6
20260504231517 54 0.0 0.0 0.00 0.00 0.00 84 1011.8
20260504230557 55 0.0 0.0 0.00 0.00 0.00 84 1011.7
20260504225537 55 0.0 0.0 0.00 0.00 0.00 84 1011.8
20260504224517 55 0.0 0.0 0.00 0.00 0.00 83 1011.8
20260504223537 55 0.0 0.0 0.00 0.00 0.00 83 1012.0
20260504222617 55 0.0 0.0 0.00 0.00 0.00 83 1012.1
20260504221517 56 0.0 0.0 0.00 0.00 0.00 82 1012.1
20260504220517 56 0.0 0.0 0.00 0.00 0.00 82 1012.1
20260504215516 56 0.0 0.0 0.00 0.00 0.00 82 1012.2